• In Belarus
  • List of Countries
  • For 7 days
  • Water Temperature
  • Satellite Maps
  • Weather Map
  • Weather Widgets
  • user-avatar
    Login

    Hourly Weather Algiers

    Today, 16 December, Saturday

    Time Temperature Precipitation Wind Pressure Humidity
    00:00 +14°C° 0 mm 6 mps 745 mmHg 85%
    01:00 +13°C° 0.9 mm 5 mps 745 mmHg 89%
    02:00 +13°C° 0.9 mm 4 mps 745 mmHg 92%
    03:00 +13°C° 0.9 mm 3 mps 745 mmHg 96%
    04:00 +12°C° 0.4 mm 3 mps 745 mmHg 94%
    05:00 +12°C° 0.4 mm 3 mps 745 mmHg 93%
    06:00 +12°C° 0 mm 4 mps 746 mmHg 90%
    07:00 +12°C° 0.1 mm 4 mps 746 mmHg 87%
    08:00 +12°C° 0.1 mm 4 mps 747 mmHg 83%
    09:00 +12°C° 0.1 mm 4 mps 747 mmHg 79%
    10:00 +13°C° 0.1 mm 4 mps 748 mmHg 74%
    11:00 +13°C° 0.1 mm 4 mps 748 mmHg 68%
    12:00 +14°C° 0 mm 5 mps 749 mmHg 60%
    13:00 +14°C° 0.1 mm 5 mps 749 mmHg 59%
    14:00 +13°C° 0.1 mm 5 mps 749 mmHg 59%
    15:00 +13°C° 0.1 mm 5 mps 750 mmHg 59%
    16:00 +12°C° 0.2 mm 4 mps 750 mmHg 64%
    17:00 +11°C° 0.2 mm 3 mps 751 mmHg 69%
    18:00 +10°C° 0.2 mm 2 mps 751 mmHg 74%
    19:00 +10°C° 0.3 mm 2 mps 752 mmHg 76%
    20:00 +10°C° 0.3 mm 2 mps 752 mmHg 78%
    21:00 +9°C° 0.3 mm 2 mps 753 mmHg 80%
    22:00 +9°C° 0.3 mm 2 mps 753 mmHg 81%
    23:00 +9°C° 0.3 mm 2 mps 753 mmHg 82%

    Tomorrow, 17 December, Sunday

    Time Temperature Precipitation Wind Pressure Humidity
    00:00 +9°C° 0.3 mm 2 mps 753 mmHg 83%
    01:00 +9°C° 0.2 mm 2 mps 753 mmHg 84%
    02:00 +9°C° 0.2 mm 2 mps 754 mmHg 85%
    03:00 +9°C° 0.2 mm 2 mps 754 mmHg 85%
    04:00 +8°C° 0.3 mm 2 mps 754 mmHg 86%
    05:00 +8°C° 0.3 mm 2 mps 754 mmHg 86%
    06:00 +8°C° 0.3 mm 2 mps 754 mmHg 86%
    07:00 +9°C° 0.3 mm 2 mps 755 mmHg 82%
    08:00 +10°C° 0.3 mm 2 mps 755 mmHg 78%
    09:00 +12°C° 0.3 mm 2 mps 756 mmHg 74%
    10:00 +12°C° 0.2 mm 2 mps 756 mmHg 68%
    11:00 +13°C° 0.2 mm 2 mps 756 mmHg 62%
    12:00 +14°C° 0.2 mm 2 mps 756 mmHg 56%
    13:00 +13°C° 0.2 mm 3 mps 756 mmHg 57%
    14:00 +12°C° 0.2 mm 3 mps 756 mmHg 58%
    15:00 +12°C° 0.2 mm 4 mps 756 mmHg 59%
    16:00 +11°C° 0.2 mm 4 mps 757 mmHg 66%
    17:00 +10°C° 0.2 mm 3 mps 757 mmHg 73%
    18:00 +9°C° 0.2 mm 3 mps 758 mmHg 81%
    19:00 +9°C° 0.2 mm 3 mps 758 mmHg 83%
    20:00 +8°C° 0.2 mm 3 mps 759 mmHg 85%
    21:00 +8°C° 0.2 mm 3 mps 759 mmHg 86%
    22:00 +8°C° 0 mm 3 mps 759 mmHg 87%
    23:00 +7°C° 0 mm 2 mps 759 mmHg 88%

    Day after tomorrow, 18 December, Monday

    Time Temperature Precipitation Wind Pressure Humidity
    00:00 +7°C° 0 mm 2 mps 760 mmHg 89%
    01:00 +7°C° 0 mm 2 mps 760 mmHg 89%
    02:00 +7°C° 0 mm 2 mps 760 mmHg 89%
    03:00 +7°C° 0 mm 2 mps 760 mmHg 89%
    04:00 +6°C° 0 mm 2 mps 760 mmHg 88%
    05:00 +6°C° 0 mm 2 mps 760 mmHg 87%
    06:00 +6°C° 0 mm 2 mps 760 mmHg 86%
    07:00 +7°C° 0 mm 2 mps 760 mmHg 78%
    08:00 +8°C° 0 mm 2 mps 760 mmHg 71%
    09:00 +9°C° 0 mm 2 mps 761 mmHg 64%
    10:00 +10°C° 0 mm 2 mps 760 mmHg 59%
    11:00 +12°C° 0 mm 2 mps 760 mmHg 54%
    12:00 +13°C° 0 mm 2 mps 760 mmHg 49%
    13:00 +13°C° 0 mm 2 mps 759 mmHg 50%
    14:00 +13°C° 0 mm 2 mps 759 mmHg 52%
    15:00 +13°C° 0 mm 2 mps 759 mmHg 54%
    16:00 +12°C° 0 mm 2 mps 759 mmHg 59%
    17:00 +11°C° 0 mm 1 mps 759 mmHg 65%
    18:00 +9°C° 0 mm 1 mps 759 mmHg 71%
    19:00 +9°C° 0 mm 1 mps 759 mmHg 72%
    20:00 +8°C° 0 mm 2 mps 759 mmHg 73%
    21:00 +8°C° 0 mm 2 mps 759 mmHg 75%
    22:00 +7°C° 0 mm 3 mps 758 mmHg 74%
    23:00 +7°C° 0 mm 3 mps 758 mmHg 74%

    19 December, Tuesday

    Time Temperature Precipitation Wind Pressure Humidity
    00:00 +6°C° 0 mm 4 mps 758 mmHg 73%
    01:00 +6°C° 0 mm 4 mps 757 mmHg 71%
    02:00 +6°C° 0 mm 4 mps 757 mmHg 69%
    03:00 +6°C° 0 mm 4 mps 756 mmHg 67%
    04:00 +6°C° 0 mm 4 mps 756 mmHg 64%
    05:00 +6°C° 0 mm 4 mps 756 mmHg 60%
    06:00 +6°C° 0 mm 4 mps 756 mmHg 57%
    07:00 +7°C° 0.1 mm 4 mps 756 mmHg 54%
    08:00 +8°C° 0.1 mm 4 mps 757 mmHg 50%
    09:00 +9°C° 0.1 mm 5 mps 757 mmHg 47%
    10:00 +10°C° 0.8 mm 5 mps 757 mmHg 50%
    11:00 +12°C° 0.8 mm 4 mps 757 mmHg 52%
    12:00 +13°C° 0.8 mm 4 mps 756 mmHg 54%
    13:00 +12°C° 0.5 mm 4 mps 756 mmHg 63%
    14:00 +10°C° 0.5 mm 5 mps 756 mmHg 72%
    15:00 +10°C° 0.5 mm 5 mps 755 mmHg 81%
    16:00 +9°C° 0.6 mm 5 mps 755 mmHg 83%
    17:00 +9°C° 0.6 mm 5 mps 756 mmHg 85%
    18:00 +9°C° 0.6 mm 6 mps 756 mmHg 88%
    19:00 +9°C° 0.7 mm 6 mps 756 mmHg 88%
    20:00 +9°C° 0.7 mm 6 mps 756 mmHg 89%
    21:00 +8°C° 0.7 mm 6 mps 757 mmHg 89%
    22:00 +8°C° 0.6 mm 6 mps 757 mmHg 90%
    23:00 +8°C° 0.6 mm 6 mps 757 mmHg 91%

    20 December, Wednesday

    Time Temperature Precipitation Wind Pressure Humidity
    00:00 +8°C° 0.6 mm 5 mps 757 mmHg 91%
    01:00 +8°C° 0.2 mm 5 mps 757 mmHg 91%
    02:00 +8°C° 0.2 mm 5 mps 757 mmHg 91%
    03:00 +7°C° 0.2 mm 4 mps 757 mmHg 91%
    04:00 +7°C° 0 mm 4 mps 757 mmHg 91%
    05:00 +7°C° 0 mm 4 mps 758 mmHg 91%
    06:00 +7°C° 0 mm 4 mps 758 mmHg 90%
    07:00 +8°C° 0 mm 4 mps 759 mmHg 85%
    08:00 +10°C° 0 mm 3 mps 759 mmHg 80%
    09:00 +11°C° 0 mm 3 mps 760 mmHg 75%
    10:00 +12°C° 0 mm 3 mps 760 mmHg 69%
    11:00 +13°C° 0 mm 3 mps 760 mmHg 63%
    12:00 +15°C° 0 mm 2 mps 760 mmHg 57%
    13:00 +14°C° 0 mm 3 mps 760 mmHg 57%
    14:00 +14°C° 0 mm 3 mps 760 mmHg 58%
    15:00 +14°C° 0 mm 4 mps 760 mmHg 59%
    16:00 +13°C° 0 mm 3 mps 760 mmHg 66%
    17:00 +11°C° 0 mm 3 mps 760 mmHg 74%
    18:00 +10°C° 0 mm 3 mps 761 mmHg 81%
    19:00 +10°C° 0.1 mm 3 mps 761 mmHg 83%
    20:00 +10°C° 0.1 mm 3 mps 762 mmHg 85%
    21:00 +9°C° 0.1 mm 3 mps 762 mmHg 87%
    22:00 +9°C° 0 mm 3 mps 762 mmHg 88%
    23:00 +9°C° 0 mm 3 mps 762 mmHg 89%

    21 December, Thursday

    Time Temperature Precipitation Wind Pressure Humidity
    00:00 +9°C° 0 mm 3 mps 762 mmHg 90%
    01:00 +9°C° 0 mm 2 mps 762 mmHg 91%
    02:00 +9°C° 0 mm 2 mps 762 mmHg 92%
    03:00 +9°C° 0 mm 2 mps 762 mmHg 93%
    04:00 +8°C° 0 mm 2 mps 762 mmHg 93%
    05:00 +8°C° 0 mm 2 mps 762 mmHg 93%
    06:00 +9°C° 0 mm 1 mps 762 mmHg 93%
    07:00 +10°C° 0 mm 1 mps 763 mmHg 89%
    08:00 +11°C° 0 mm 1 mps 763 mmHg 85%
    09:00 +12°C° 0 mm 1 mps 763 mmHg 82%
    10:00 +13°C° 0 mm 2 mps 763 mmHg 74%
    11:00 +14°C° 0 mm 2 mps 763 mmHg 66%
    12:00 +15°C° 0 mm 2 mps 763 mmHg 58%
    13:00 +15°C° 0 mm 2 mps 762 mmHg 59%
    14:00 +15°C° 0 mm 2 mps 762 mmHg 60%
    15:00 +14°C° 0 mm 3 mps 762 mmHg 61%
    16:00 +13°C° 0 mm 3 mps 762 mmHg 68%
    17:00 +11°C° 0 mm 3 mps 762 mmHg 74%
    18:00 +10°C° 0 mm 3 mps 762 mmHg 81%
    19:00 +10°C° 0 mm 3 mps 763 mmHg 82%
    20:00 +9°C° 0 mm 3 mps 763 mmHg 84%
    21:00 +9°C° 0 mm 3 mps 763 mmHg 85%
    22:00 +9°C° 0 mm 3 mps 763 mmHg 85%
    23:00 +9°C° 0 mm 2 mps 763 mmHg 85%
    Show more